Regional Weather Roundup
Issued by NWS

Home | Current Version | Previous Version | Graphics & Text | Print | Product List | Glossary On
Versions: 1 2 3 4 5 6 7 8 9 10 11 12 13 14 15 16 17 18 19 20 21 22 23 24 25 26 27 28 29 30 31 32 33 34 35 36 37 38 39 40 41 42 43 44 45 46 47 48 49 50
000
ASUS43 KMPX 201910
RWRMN
WEATHER ROUNDUP FOR MINNESOTA
NATIONAL WEATHER SERVICE TWIN CITIES/CHANHASSEN MN
200 PM CDT MON OCT 20 2014


NOTE: "FAIR" INDICATES FEW OR NO CLOUDS BELOW 12,000 FEET WITH NO
SIGNIFICANT WEATHER AND/OR OBSTRUCTIONS TO VISIBILITY. N/A MEANS
CURRENT SKY AND/OR WEATHER CONDITIONS ARE NOT AVAILABLE.

MNZ060>063-068>070-202000-
   Twin Cities Metro

CITY           SKY/WX    TMP DP  RH WIND       PRES   REMARKS
TWIN CITIES    SUNNY     63  43  48 NW13G18   29.98F
ST PAUL        SUNNY     62  43  49 N15G21    29.98F
CRYSTAL        SUNNY     64  42  44 NW13G20   29.98S
BLAINE         MOSUNNY   63  43  48 MISG        N/A
LAKEVILLE      SUNNY     61  43  51 NW12G21   29.98S
EDEN PRAIRIE   SUNNY     62  41  46 NW17      29.97F
SOUTH ST PAUL  SUNNY     62  41  45 N12G18    29.97S
LAKE ELMO      FAIR      61  43  51 N14       29.99S
$$
MNZ001>005-007-008-013>017-022>024-027-028-202000-
   Northwest Minnesota

CITY           SKY/WX    TMP DP  RH WIND       PRES   REMARKS
BEMIDJI        SUNNY     51  39  63 N8        30.04S
HALLOCK        MOSUNNY   52  43  71 N3        30.06F
ROSEAU           N/A     50  39  66 CALM      30.05F
WARROAD        MOSUNNY   48  39  71 E8        30.07S
THIEF RVR FALL SUNNY     52  39  62 NW6       30.06F
CROOKSTON      SUNNY     55  43  62 N6        30.07S
FOSSTON        SUNNY     55  39  54 N5        30.05F
DETROIT LAKES  SUNNY     55  41  58 N6        30.04F
MOORHEAD       SUNNY     61  45  55 N7        30.05F
PARK RAPIDS    SUNNY     56  37  49 NW10      30.02F
MAHNOMEN       FAIR      55  40  58 N9        30.04S
$$
MNZ006-009>011-018-025>026-202000-
   North Central Minnesota

CITY           SKY/WX    TMP DP  RH WIND       PRES   REMARKS
BAUDETTE       CLOUDY    47  37  68 NW6       30.06S
FLAG ISLAND    CLOUDY    45  36  70 NE5       30.05F
INTL FALLS     CLOUDY    47  36  65 N8        30.04S
WASKISH        CLOUDY    46  43  87 CALM      30.06R
BIG FORK       CLOUDY    46  39  76 N6        30.04S
LONGVILLE      MOSUNNY   54  39  58 W9        30.02F
GRAND RAPIDS   CLOUDY    46  37  71 N8        30.02S
CRANE LAKE     CLOUDY    45  37  76 NW8       30.04R
ORR            CLOUDY    46  36  66 NW5       30.00S
COOK           CLOUDY    46  37  71 N6        30.02S
WALKER         FAIR      52  38  60 NW7       30.03S
$$
MNZ012-019>021-037-202000-
   Northeast Minnesota

CITY           SKY/WX    TMP DP  RH WIND       PRES   REMARKS
DULUTH         CLOUDY    50  39  66 N9        29.99S
ELY            CLOUDY    46  37  71 NW10      30.00R
HIBBING        CLOUDY    49  38  65 NW12      30.01S
EVELETH        PTSUNNY   45  36  70 NW9G17    30.01S
DULUTH HARBOR  CLOUDY    52  45  76 N7        30.01S
TWO HARBORS    CLOUDY    54  32  43 NW3       29.97R
SILVER BAY     MOSUNNY   52  37  58 NW6       29.97R
GRAND MARAIS     N/A     51  40  65 N6        29.96R
G MARAIS ARPRT CLOUDY    45  37  76 NW9G17    29.95S
$$
MNZ029>031-032-039>041-046>048-054>057-064-202000-
   West Central Minnesota

CITY           SKY/WX    TMP DP  RH WIND       PRES   REMARKS
FERGUS FALLS   SUNNY     63  39  42 NW14      30.04F
WHEATON        SUNNY     63  41  45 NW7       30.05F
MORRIS         SUNNY     64  43  45 NW10      30.02F
ALEXANDRIA     SUNNY     61  39  44 NW13      30.03F
ELBOW LAKE     FAIR      61  42  50 NW9G17    30.03F
WADENA         SUNNY     59  41  51 NW9       30.01F
GLENWOOD       SUNNY     63  43  48 NW15G22   30.03S
APPLETON       SUNNY     66  39  37 NW10      30.03F
BENSON         SUNNY     64  41  42 N13       30.03F
ORTONVILLE     SUNNY     64  39  39 NW7       30.04F
MADISON        SUNNY     70  41  35 N10       30.04F
WILLMAR        FAIR      64  37  36 NW16G23   30.03F
$$
MNZ033>034-036-042>043-049>051-058-059-202000-
   Central Minnesota

CITY           SKY/WX    TMP DP  RH WIND       PRES   REMARKS
ST CLOUD       SUNNY     64  41  42 N12G18    30.00F
SAUK CENTRE    FAIR      61  39  45 NW14      30.02S
PAYNESVILLE    SUNNY     60  37  43 W15G21    30.02F
AITKIN         MOSUNNY   55  39  54 NW3       30.00S
PINE RIVER     SUNNY     54  41  62 N8        30.05S
BRAINERD       SUNNY     54  40  59 N10       30.02F
STAPLES        SUNNY     59  37  44 NW9       30.01F
LONG PRAIRIE   FAIR      59  39  47 NW6       30.02F
LITTLE FALLS   SUNNY     59  37  44 W8        30.01S
LITCHFIELD     SUNNY     64  39  39 NW13      30.01S
BUFFALO        SUNNY     62  40  45 NW12      30.00F
MAPLE LAKE     SUNNY     62  44  51 N13       30.01F
$$
MNZ037-044-045-052-053-202000-
   East Central Minnesota

CITY           SKY/WX    TMP DP  RH WIND       PRES   REMARKS
PRINCETON      SUNNY     63  45  51 N6        29.99F
MORA           SUNNY     55  41  58 NW9       30.01F
CAMBRIDGE      SUNNY     61  43  51 NW14G20   29.98S
RUSH CITY      MOSUNNY   56  41  56 NW6       30.00S
MOOSE LAKE     CLOUDY    50  37  62 NW9G17    29.99S
HINCKLEY       MOCLDY    54  41  62 N8        30.00S
CLOQUET        CLOUDY    50  37  62 NW9       30.00S
MCGREGOR       CLOUDY    50  39  66 NW8       30.02S
$$
MNZ071>073-080-081-089-090-097-098-202000-
   Southwest Minnesota

CITY           SKY/WX    TMP DP  RH WIND       PRES   REMARKS
MONTEVIDEO     SUNNY     68  43  40 N10       30.03F
GRANITE FALLS  SUNNY     66  41  40 NW12G17   30.04F
CANBY          SUNNY     67  41  38 N10       30.05S
MARSHALL       SUNNY     66  39  37 N14       30.03F
REDWOOD FALLS  SUNNY     67  40  37 NW13G21   30.02F
OLIVIA         SUNNY     64  41  42 N15       30.01F
PIPESTONE      SUNNY     66  36  32 NW14      30.05S
WINDOM         SUNNY     66  39  37 NW14G22   30.03F
WORTHINGTON    SUNNY     66  37  34 NW14      30.05F
JACKSON        SUNNY     68  34  28 NW12      30.03F
TRACY          SUNNY     67  40  36 NW12G20   30.04F
SLAYTON        SUNNY     66  36  32 NW10      30.05F
$$
MNZ065>067-074>077-082>085-091>093-202000-
   South Central Minnesota

CITY           SKY/WX    TMP DP  RH WIND       PRES   REMARKS
MANKATO        SUNNY     64  39  39 NW17      29.99S
NEW ULM        SUNNY     64  43  45 N10G23    30.00S
ST JAMES       SUNNY     66  37  34 W13       30.02S
FAIRMONT       SUNNY     66  37  34 NW15G21   30.01F
GLENCOE        SUNNY     65  43  45 NW13      29.99F
FARIBAULT      SUNNY     64  43  45 W13       29.99S
OWATONNA       SUNNY     63  43  48 NW13G18   29.98S
WASECA         SUNNY     63  36  36 NW14G21   30.00F
ALBERT LEA     SUNNY     64  39  39 NW14G26   29.98S
$$
MNZ078>079-086>088-094>096-202000-
   Southeast Minnesota

CITY           SKY/WX    TMP DP  RH WIND       PRES   REMARKS
ROCHESTER      SUNNY     62  44  51 N14       29.97F
RED WING       MOSUNNY   63  41  45 NW10G16   29.96S
STANTON        SUNNY     64  43  47 NW15      29.96S
DODGE CENTER   SUNNY     61  45  55 NW9G17    29.97S
WINONA         SUNNY     63  41  45 NW15G23   29.94F
AUSTIN         SUNNY     63  43  48 NW16G23   29.96F
PRESTON        SUNNY     60  43  54 NW15G21   29.96S
$$
ABBREVIATIONS USED IN REMARKS
   TC - TEMPERATURES IN CELSIUS
  WCI - WIND CHILL INDEX
   HX - HEAT INDEX
  VSB - VISIBILITY
$$



USA.gov is the U.S. government's official web portal to all federal, state and local government web resources and services.